Weather in Fribourg

Switzerland     46°48′24″N   7°09′40″E
В апреле 2022 года жителям России запретили посещать сайт meteo.paraplan.net по решению Генеральной прокуратуры. Аудитория сайта уменьшилась в 10 раз. Владельцы сайта не видят смысла в поддержке погодного сервера в таких условиях. Сайт будет закрыт в октябре.
temp.,
°C
wind,
m/s
gust,
m/s
humid.,
%
clouds,
%
prec.,
mm/h
press.,
hPa
HPBL,
m
25 september, sun
sun2523:00+7sse229365 0.1 101415
02:00+7sse2293100 0.2 101416
05:00+8ssw1195100 0.6 101328
08:00+8wnw12100100 3.4 1013100
11:00+8se1197100 5.3 1014133
14:00+10wsw1285100 5.6 1013427
17:00+10wnw1288100 1.0 1013379
20:00+8ssw219586 4.3 101435
26 september, mon
mon2623:00+8ssw119499 0.6 101523
02:00+8sw229399 0.7 101432
05:00+7sw229695 0.1 101344
08:00+7wsw239586 0.3 1012107
11:00+8wsw2387100 0.2 1012448
14:00+9sw3576100 0.3 1010779
17:00+11wsw4866100 0.1 10081348
20:00+8sw4976100 0.3 1008543
27 september, tue
tue2723:00+7sw3781100 0.2 1008250
02:00+6ssw41395100 3.6 10071262
05:00+6wsw61295100 2.0 10081139
08:00+4wsw3109552 2.5 1010705
11:00+6wsw488651 0.1 1009883
14:00+8wsw497599 0.3 10081492
17:00+9wsw597274 0.3 10071389
20:00+7sw4976100 0.4 1009624
28 september, wed
wed2823:00+7ssw3877100 0.0 1008397
02:00+7ssw397198 0.1 1006762
05:00+6s3588100 0.4 1003128
08:00+7s3696100 3.3 1001187
11:00+8ssw31096100 5.7 1001856
14:00+10wsw41094100 10.2 1001868
17:00+9sw51097100 4.1 1001910
20:00+8sw2597100 7.6 1002208
29 september, thu
thu2923:00+6nnw0199100 10.5 100594
02:00+6sse1198100 17.6 100559
05:00+6wsw129789 2.1 1004101
08:00+6w0199100 2.9 1005100
11:00+7nnw1196100 1.2 1006294
14:00+7w1297100 3.8 1007246
17:00+6ssw1497100 1.6 1008257
20:00+6ese119499 1.6 100926